Regional Weather Roundup
Issued by NWS

Home | Current Version | Previous Version | Graphics & Text | Print | Product List | Glossary On
Versions: 1 2 3 4 5 6 7 8 9 10 11 12 13 14 15 16 17 18 19 20 21 22 23 24 25 26 27 28 29 30 31 32 33 34 35 36 37 38 39 40 41 42 43 44 45 46 47 48 49 50
000
ASUS43 KLMK 091302
RWRKY
KENTUCKY REGIONAL WEATHER ROUNDUP
NATIONAL WEATHER SERVICE LOUISVILLE KY
800 AM EST FRI DEC 09 2016

NOTE "FAIR" INDICATES FEW OR NO CLOUDS BELOW 12,000 FEET
WITH NO SIGNIFICANT WEATHER AND/OR OBSTRUCTIONS TO VISIBILITY.

KYZ001>023-026-027-061>063-070>075-091400-
WESTERN AND SOUTH CENTRAL KENTUCKY

CITY           SKY/WX    TMP DP  RH WIND       PRES   REMARKS
PADUCAH        CLEAR     19  12  74 W5        30.62S WCI  12
HENDERSON      CLOUDY    21  14  73 NW7       30.61S WCI  13
OWENSBORO      PTCLDY    20  14  77 NW5       30.61R WCI  13
HOPKINSVILLE   CLOUDY    23  16  75 NW3       30.59R
BOWLING GREEN  MOCLDY    25  13  60 N5        30.60R WCI  19
GLASGOW        NOT AVBL
$$

KYZ024-025-028>034-038-045-046-053-091400-
NORTH CENTRAL KENTUCKY

CITY           SKY/WX    TMP DP  RH WIND       PRES   REMARKS
LOUISVILLE/SDF FLURRIES  24  11  57 NW9       30.57S WCI  14
LOUISVILLE/LOU CLOUDY    23  13  65 NW10      30.58R WCI  12
FORT KNOX      CLOUDY    22  13  68 N3        30.54S
$$

KYZ035>037-039>044-047>052-055>060-089>105-091400-
NORTHEAST KENTUCKY

CITY           SKY/WX    TMP DP  RH WIND       PRES   REMARKS
LEXINGTON      CLOUDY    21  12  68 W9        30.52S WCI  11
COVINGTON      FLURRIES  21  13  71 W10       30.51R WCI  10
FRANKFORT      CLOUDY    22  12  65 NW6       30.53S WCI  14
$$

KYZ054-064>069-076>088-106>120-091400-
SOUTHEAST KENTUCKY

CITY           SKY/WX    TMP DP  RH WIND       PRES   REMARKS
JACKSON        CLOUDY    21  12  68 VRB3      30.48R
LONDON         CLOUDY    22   9  57 N7        30.51R WCI  13
SOMERSET       CLOUDY    23  10  58 N6        30.55S WCI  16
MIDDLESBORO    CLOUDY    23  13  66 N7        30.51R WCI  15
MONTICELLO     CLOUDY    23  14  68 N13       30.55S WCI  11
$$




USA.gov is the U.S. government's official web portal to all federal, state and local government web resources and services.